• In Czech Republic
  • List of Countries
  • For 7 days
  • Water Temperature
  • Satellite Maps
  • Weather Map
  • Weather Widgets
  • user-avatar
    Login

    Hourly Weather Bregenz

    Today, 23 June, Friday

    Time Temperature Precipitation Wind Pressure Humidity
    00:00 +14°C° 0.5 mm 2 mps 649 mmHg 87%
    01:00 +14°C° 0 mm 3 mps 649 mmHg 88%
    02:00 +14°C° 0.9 mm 3 mps 649 mmHg 88%
    03:00 +14°C° 0.9 mm 3 mps 649 mmHg 89%
    04:00 +13°C° 0.9 mm 3 mps 649 mmHg 89%
    05:00 +15°C° 0.9 mm 2 mps 649 mmHg 88%
    06:00 +16°C° 0.9 mm 2 mps 649 mmHg 87%
    07:00 +19°C° 0 mm 2 mps 650 mmHg 86%
    08:00 +20°C° 0.2 mm 2 mps 651 mmHg 76%
    09:00 +21°C° 0.2 mm 3 mps 651 mmHg 67%
    10:00 +24°C° 0.2 mm 3 mps 652 mmHg 57%
    11:00 +24°C° 0.3 mm 3 mps 652 mmHg 58%
    12:00 +23°C° 0.3 mm 4 mps 652 mmHg 58%
    13:00 +23°C° 0.3 mm 4 mps 652 mmHg 59%
    14:00 +23°C° 0.4 mm 4 mps 652 mmHg 62%
    15:00 +22°C° 0.4 mm 3 mps 651 mmHg 64%
    16:00 +22°C° 0.4 mm 3 mps 651 mmHg 67%
    17:00 +21°C° 0.3 mm 3 mps 651 mmHg 73%
    18:00 +20°C° 0.3 mm 2 mps 651 mmHg 80%
    19:00 +18°C° 0.3 mm 2 mps 651 mmHg 86%
    20:00 +16°C° 0.2 mm 1 mps 650 mmHg 90%
    21:00 +14°C° 0.2 mm 1 mps 650 mmHg 93%
    22:00 +13°C° 0.2 mm 1 mps 650 mmHg 97%
    23:00 +12°C° 0 mm 1 mps 650 mmHg 97%

    Tomorrow, 24 June, Saturday

    Time Temperature Precipitation Wind Pressure Humidity
    00:00 +12°C° 0 mm 1 mps 650 mmHg 97%
    01:00 +12°C° 0 mm 1 mps 650 mmHg 97%
    02:00 +12°C° 0 mm 1 mps 649 mmHg 96%
    03:00 +12°C° 0 mm 1 mps 649 mmHg 95%
    04:00 +12°C° 0 mm 1 mps 649 mmHg 94%
    05:00 +13°C° 0 mm 1 mps 650 mmHg 90%
    06:00 +15°C° 0 mm 1 mps 650 mmHg 85%
    07:00 +16°C° 0 mm 1 mps 650 mmHg 81%
    08:00 +18°C° 0 mm 1 mps 650 mmHg 77%
    09:00 +19°C° 0 mm 1 mps 651 mmHg 73%
    10:00 +19°C° 0 mm 2 mps 651 mmHg 70%
    11:00 +20°C° 0 mm 2 mps 651 mmHg 68%
    12:00 +20°C° 0 mm 2 mps 650 mmHg 67%
    13:00 +21°C° 0 mm 3 mps 650 mmHg 66%
    14:00 +20°C° 0.2 mm 3 mps 650 mmHg 68%
    15:00 +20°C° 0.2 mm 3 mps 650 mmHg 69%
    16:00 +20°C° 0.2 mm 3 mps 650 mmHg 71%
    17:00 +19°C° 0.5 mm 3 mps 650 mmHg 77%
    18:00 +18°C° 0.5 mm 2 mps 649 mmHg 82%
    19:00 +17°C° 0.5 mm 2 mps 649 mmHg 87%
    20:00 +15°C° 0.1 mm 2 mps 649 mmHg 90%
    21:00 +14°C° 0.1 mm 1 mps 649 mmHg 94%
    22:00 +13°C° 0.1 mm 1 mps 648 mmHg 97%
    23:00 +12°C° 0.1 mm 1 mps 648 mmHg 97%

    Day after tomorrow, 25 June, Sunday

    Time Temperature Precipitation Wind Pressure Humidity
    00:00 +12°C° 0.1 mm 1 mps 648 mmHg 97%
    01:00 +11°C° 0.1 mm 1 mps 648 mmHg 97%
    02:00 +11°C° 0.3 mm 1 mps 648 mmHg 97%
    03:00 +12°C° 0.3 mm 1 mps 647 mmHg 97%
    04:00 +12°C° 0.3 mm 1 mps 647 mmHg 97%
    05:00 +12°C° 0.2 mm 1 mps 647 mmHg 96%
    06:00 +13°C° 0.2 mm 2 mps 648 mmHg 94%
    07:00 +14°C° 0.2 mm 2 mps 648 mmHg 92%
    08:00 +14°C° 0.1 mm 2 mps 648 mmHg 87%
    09:00 +15°C° 0.1 mm 2 mps 648 mmHg 83%
    10:00 +15°C° 0.1 mm 2 mps 648 mmHg 79%
    11:00 +16°C° 0.1 mm 2 mps 648 mmHg 74%
    12:00 +17°C° 0.1 mm 3 mps 649 mmHg 68%
    13:00 +18°C° 0.1 mm 3 mps 649 mmHg 63%
    14:00 +19°C° 0 mm 3 mps 649 mmHg 61%
    15:00 +19°C° 0 mm 3 mps 649 mmHg 60%
    16:00 +19°C° 0 mm 3 mps 649 mmHg 58%
    17:00 +18°C° 0 mm 3 mps 648 mmHg 64%
    18:00 +17°C° 0 mm 2 mps 648 mmHg 71%
    19:00 +16°C° 0 mm 2 mps 648 mmHg 78%
    20:00 +14°C° 0 mm 1 mps 648 mmHg 84%
    21:00 +11°C° 0 mm 1 mps 647 mmHg 90%
    22:00 +9°C° 0 mm 1 mps 647 mmHg 96%
    23:00 +7°C° 0 mm 0 mps 647 mmHg 96%

    26 June, Monday

    Time Temperature Precipitation Wind Pressure Humidity
    00:00 +6°C° 0 mm 0 mps 646 mmHg 96%
    01:00 +6°C° 0 mm 0 mps 646 mmHg 96%
    02:00 +6°C° 0 mm 0 mps 646 mmHg 96%
    03:00 +5°C° 0 mm 0 mps 646 mmHg 96%
    04:00 +5°C° 0 mm 0 mps 646 mmHg 95%
    05:00 +9°C° 0 mm 1 mps 646 mmHg 90%
    06:00 +12°C° 0 mm 1 mps 647 mmHg 84%
    07:00 +15°C° 0 mm 1 mps 648 mmHg 78%
    08:00 +18°C° 0 mm 1 mps 648 mmHg 69%
    09:00 +20°C° 0 mm 1 mps 649 mmHg 60%
    10:00 +22°C° 0 mm 1 mps 649 mmHg 51%
    11:00 +23°C° 0 mm 2 mps 649 mmHg 48%
    12:00 +24°C° 0 mm 2 mps 649 mmHg 46%
    13:00 +25°C° 0 mm 2 mps 649 mmHg 44%
    14:00 +25°C° 0.1 mm 2 mps 649 mmHg 47%
    15:00 +25°C° 0.1 mm 2 mps 648 mmHg 49%
    16:00 +24°C° 0.1 mm 2 mps 648 mmHg 52%
    17:00 +23°C° 0.6 mm 2 mps 648 mmHg 64%
    18:00 +20°C° 0.6 mm 2 mps 647 mmHg 75%
    19:00 +20°C° 0.6 mm 1 mps 647 mmHg 86%
    20:00 +18°C° 0.9 mm 1 mps 647 mmHg 89%
    21:00 +16°C° 0.9 mm 1 mps 646 mmHg 91%
    22:00 +15°C° 0.9 mm 1 mps 646 mmHg 94%
    23:00 +14°C° 0.6 mm 2 mps 646 mmHg 94%

    27 June, Tuesday

    Time Temperature Precipitation Wind Pressure Humidity
    00:00 +14°C° 0.6 mm 2 mps 646 mmHg 94%
    01:00 +14°C° 0.6 mm 2 mps 645 mmHg 94%
    02:00 +13°C° 0.3 mm 2 mps 645 mmHg 94%
    03:00 +13°C° 0.3 mm 2 mps 645 mmHg 94%
    04:00 +12°C° 0.3 mm 2 mps 644 mmHg 94%
    05:00 +13°C° 0.2 mm 2 mps 645 mmHg 92%
    06:00 +15°C° 0.2 mm 2 mps 645 mmHg 90%
    07:00 +16°C° 0.2 mm 2 mps 645 mmHg 89%
    08:00 +18°C° 0.1 mm 2 mps 646 mmHg 78%
    09:00 +21°C° 0.1 mm 1 mps 646 mmHg 67%
    10:00 +23°C° 0.1 mm 1 mps 647 mmHg 56%
    11:00 +24°C° 0.2 mm 1 mps 647 mmHg 55%
    12:00 +24°C° 0.2 mm 1 mps 647 mmHg 53%
    13:00 +25°C° 0.2 mm 1 mps 646 mmHg 51%
    14:00 +25°C° 0.4 mm 1 mps 646 mmHg 51%
    15:00 +25°C° 0.4 mm 1 mps 646 mmHg 52%
    16:00 +25°C° 0.4 mm 1 mps 646 mmHg 52%
    17:00 +24°C° 0.4 mm 1 mps 645 mmHg 62%
    18:00 +22°C° 0.4 mm 1 mps 645 mmHg 71%
    19:00 +21°C° 0.4 mm 1 mps 644 mmHg 81%
    20:00 +19°C° 0 mm 1 mps 644 mmHg 83%
    21:00 +16°C° 0 mm 1 mps 643 mmHg 85%
    22:00 +14°C° 0 mm 2 mps 643 mmHg 87%
    23:00 +14°C° 0.5 mm 2 mps 642 mmHg 87%

    28 June, Wednesday

    Time Temperature Precipitation Wind Pressure Humidity
    00:00 +13°C° 0.5 mm 2 mps 642 mmHg 87%
    01:00 +13°C° 0.5 mm 2 mps 642 mmHg 88%
    02:00 +13°C° 0.3 mm 2 mps 642 mmHg 89%
    03:00 +13°C° 0.3 mm 2 mps 642 mmHg 90%
    04:00 +12°C° 0.3 mm 2 mps 642 mmHg 91%
    05:00 +14°C° 0.2 mm 2 mps 642 mmHg 87%
    06:00 +15°C° 0.2 mm 2 mps 642 mmHg 83%
    07:00 +16°C° 0.2 mm 2 mps 642 mmHg 80%
    08:00 +18°C° 0.2 mm 2 mps 643 mmHg 72%
    09:00 +19°C° 0.2 mm 2 mps 643 mmHg 64%
    10:00 +21°C° 0.2 mm 2 mps 643 mmHg 57%
    11:00 +23°C° 0.4 mm 2 mps 643 mmHg 57%
    12:00 +23°C° 0.4 mm 2 mps 643 mmHg 58%
    13:00 +24°C° 0.4 mm 2 mps 643 mmHg 58%
    14:00 +23°C° 1.7 mm 2 mps 642 mmHg 65%
    15:00 +21°C° 1.7 mm 2 mps 641 mmHg 72%
    16:00 +20°C° 1.7 mm 2 mps 641 mmHg 80%
    17:00 +19°C° 2 mm 2 mps 640 mmHg 83%
    18:00 +17°C° 2 mm 2 mps 640 mmHg 87%
    19:00 +16°C° 2 mm 2 mps 639 mmHg 90%
    20:00 +15°C° 1.8 mm 2 mps 639 mmHg 91%
    21:00 +13°C° 1.8 mm 3 mps 638 mmHg 93%
    22:00 +12°C° 1.8 mm 3 mps 638 mmHg 94%
    23:00 +12°C° 0.8 mm 2 mps 637 mmHg 94%
    Show more